EA3BNF-1 Weather Reports


time (UTC)temp
F
wind
direction
speed
knots
gust
knots
rain 1hr
in
rain 24hr
in
rain mn
in
humidity
%
barometer
mb
20260502183843 68 0.0 0.0 0.00 0.00 0.00 70 1018.8
20260502182748 69 0.0 0.0 0.00 0.00 0.00 70 1018.9
20260502181652 69 0.0 0.0 0.00 0.00 0.00 69 1019.0
20260502180556 69 0.0 0.0 0.00 0.00 0.00 69 1019.0
20260502163832 71 0.0 0.0 0.00 0.00 0.00 67 1019.5
20260502162736 71 0.0 0.0 0.00 0.00 0.00 66 1019.4
20260502161641 72 0.0 0.0 0.00 0.00 0.00 66 1019.6
20260502160545 72 0.0 0.0 0.00 0.00 0.00 65 1020.0
20260502152202 75 0.0 0.0 0.00 0.00 0.00 63 1019.9
20260502151106 74 0.0 0.0 0.00 0.00 0.00 63 1020.0
20260502123804 75 0.0 0.0 0.00 0.00 0.00 63 1021.9
20260502122708 75 0.0 0.0 0.00 0.00 0.00 63 1021.9
20260502121613 75 0.0 0.0 0.00 0.00 0.00 63 1022.0
20260502120517 75 0.0 0.0 0.00 0.00 0.00 64 1021.9
20260502115421 74 0.0 0.0 0.00 0.00 0.00 64 1022.0
20260502114325 74 0.0 0.0 0.00 0.00 0.00 64 1022.1
20260502113229 74 0.0 0.0 0.00 0.00 0.00 64 1022.2
20260502112133 74 0.0 0.0 0.00 0.00 0.00 63 1022.3
20260502111038 74 0.0 0.0 0.00 0.00 0.00 62 1022.5
20260502105942 74 0.0 0.0 0.00 0.00 0.00 62 1022.6
20260502104846 74 0.0 0.0 0.00 0.00 0.00 62 1022.7
20260502103750 74 0.0 0.0 0.00 0.00 0.00 63 1022.6
20260502102654 73 0.0 0.0 0.00 0.00 0.00 63 1022.6
20260502101559 73 0.0 0.0 0.00 0.00 0.00 63 1022.5
20260502100503 72 0.0 0.0 0.00 0.00 0.00 64 1022.5
20260502091025 73 0.0 0.0 0.00 0.00 0.00 65 1022.8
20260502071011 66 0.0 0.0 0.00 0.00 0.00 75 1023.1
20260502065916 65 0.0 0.0 0.00 0.00 0.00 76 1023.1
20260502064820 64 0.0 0.0 0.00 0.00 0.00 78 1023.1
20260502063724 64 0.0 0.0 0.00 0.00 0.00 77 1023.0
20260502062624 64 0.0 0.0 0.00 0.00 0.00 77 1023.0
20260502061520 64 0.0 0.0 0.00 0.00 0.00 78 1023.0
20260502060424 63 0.0 0.0 0.00 0.00 0.00 78 1022.9
20260502055328 63 0.0 0.0 0.00 0.00 0.00 77 1022.8
20260502054233 64 0.0 0.0 0.00 0.00 0.00 78 1022.7
20260502053137 64 0.0 0.0 0.00 0.00 0.00 77 1022.7
20260502052042 64 0.0 0.0 0.00 0.00 0.00 77 1022.7
20260502050946 64 0.0 0.0 0.00 0.00 0.00 76 1022.6
20260502045850 64 0.0 0.0 0.00 0.00 0.00 79 1022.4
20260502044755 64 0.0 0.0 0.00 0.00 0.00 78 1022.3
20260502043659 64 0.0 0.0 0.00 0.00 0.00 77 1022.4
20260502042603 64 0.0 0.0 0.00 0.00 0.00 76 1022.3
20260502041508 65 0.0 0.0 0.00 0.00 0.00 77 1022.2
20260502040412 65 0.0 0.0 0.00 0.00 0.00 77 1022.2
20260502035316 65 0.0 0.0 0.00 0.00 0.00 77 1022.2
20260502034221 66 0.0 0.0 0.00 0.00 0.00 78 1022.3
20260502033125 66 0.0 0.0 0.00 0.00 0.00 79 1022.3
20260502032029 66 0.0 0.0 0.00 0.00 0.00 79 1022.3
20260502030934 66 0.0 0.0 0.00 0.00 0.00 79 1022.3
20260502025838 66 0.0 0.0 0.00 0.00 0.00 78 1022.3
20260502024742 66 0.0 0.0 0.00 0.00 0.00 77 1022.3
20260502023647 66 0.0 0.0 0.00 0.00 0.00 77 1022.2
20260502022551 66 0.0 0.0 0.00 0.00 0.00 75 1022.3
20260502021456 66 0.0 0.0 0.00 0.00 0.00 77 1022.3
20260502020400 66 0.0 0.0 0.00 0.00 0.00 76 1022.3
20260502015305 66 0.0 0.0 0.00 0.00 0.00 76 1022.4
20260502014209 66 0.0 0.0 0.00 0.00 0.00 75 1022.5
20260502013113 66 0.0 0.0 0.00 0.00 0.00 75 1022.7
20260502012017 66 0.0 0.0 0.00 0.00 0.00 76 1022.8
20260502010921 67 0.0 0.0 0.00 0.00 0.00 75 1022.9
20260502005825 66 0.0 0.0 0.00 0.00 0.00 75 1023.0
20260502004730 66 0.0 0.0 0.00 0.00 0.00 75 1023.1
20260502003634 66 0.0 0.0 0.00 0.00 0.00 75 1023.1
20260502002539 66 0.0 0.0 0.00 0.00 0.00 75 1023.2
20260502001443 66 0.0 0.0 0.00 0.00 0.00 74 1023.3
20260502000347 66 0.0 0.0 0.00 0.00 0.00 73 1023.4
20260501235251 66 0.0 0.0 0.00 0.00 0.00 74 1023.6
20260501234155 66 0.0 0.0 0.00 0.00 0.00 74 1023.7
20260501233059 66 0.0 0.0 0.00 0.00 0.00 74 1023.8
20260501232004 66 0.0 0.0 0.00 0.00 0.00 73 1023.9
20260501230909 66 0.0 0.0 0.00 0.00 0.00 73 1024.0
20260501225813 66 0.0 0.0 0.00 0.00 0.00 72 1023.9
20260501224717 67 0.0 0.0 0.00 0.00 0.00 72 1023.8
20260501223622 67 0.0 0.0 0.00 0.00 0.00 72 1023.7
20260501222526 67 0.0 0.0 0.00 0.00 0.00 71 1023.8
20260501221430 67 0.0 0.0 0.00 0.00 0.00 71 1023.9
20260501220334 66 0.0 0.0 0.00 0.00 0.00 71 1024.1
20260501215238 66 0.0 0.0 0.00 0.00 0.00 71 1024.1
20260501214143 66 0.0 0.0 0.00 0.00 0.00 72 1024.0
20260501213047 66 0.0 0.0 0.00 0.00 0.00 71 1024.0
20260501211951 66 0.0 0.0 0.00 0.00 0.00 71 1023.9
20260501210855 66 0.0 0.0 0.00 0.00 0.00 71 1024.0
20260501205759 66 0.0 0.0 0.00 0.00 0.00 72 1024.0
20260501204704 66 0.0 0.0 0.00 0.00 0.00 72 1024.0
20260501203608 67 0.0 0.0 0.00 0.00 0.00 72 1023.9
20260501202512 67 0.0 0.0 0.00 0.00 0.00 71 1023.8
20260501201417 67 0.0 0.0 0.00 0.00 0.00 71 1023.9
20260501200320 67 0.0 0.0 0.00 0.00 0.00 71 1023.7
20260501195225 67 0.0 0.0 0.00 0.00 0.00 70 1023.5
20260501194129 67 0.0 0.0 0.00 0.00 0.00 70 1023.5
20260501193033 67 0.0 0.0 0.00 0.00 0.00 70 1023.4
20260501191937 67 0.0 0.0 0.00 0.00 0.00 70 1023.2
20260501190841 68 0.0 0.0 0.00 0.00 0.00 69 1023.2
20260501185745 68 0.0 0.0 0.00 0.00 0.00 69 1023.1